Location: Cedar Brake
(32.2526°N, 97.8459°W)
Time: 08:56:43
(UTC+00:00)

ATLAS 5 CENTAUR R/B - Pass Details

Date: 22 April 2026
Orbit: 302 x 12797 km, 60.8° (Epoch: 14 May)

Event Time Altitude Azimuth Distance (km) Brightness Sun altitude
Exits shadow 09:04:53 47° 105° (ESE) 1,178 3.5 -32.1°
Drops below altitude 10° 09:14:55 10° 38° (NE) 5,139 7.6 -30.5°
Sets 09:22:12 0° 35° (NE) 7,950 8.8 -29.4°
